Location: Beaurevoir
(49.9971°N, 3.3085°E)
Time: 02:12:35
(UTC+00:00)

SL-27 R/B - Pass Details

Date: 23 May 2024
Orbit: 327 x 352 km, 74.7° (Epoch: 21 June)

Event Time Altitude Azimuth Distance (km) Brightness Sun altitude
Exits shadow 02:44:35 13° 214° (SW) 1,085 3.7 -8.8°
Maximum altitude 02:46:53 59° 294° (WNW) 387 2.0 -8.6°
Drops below altitude 10° 02:49:36 10° 16° (NNE) 1,265 5.8 -8.3°
Sets 02:51:34 0° 20° (NNE) 2,107 7.2 -8.0°
